OBJECT Z, 42848

Orbit data source: Space-Track

You're viewing an uncataloged RSO

Recently launched and/or uncataloged RSOs may have evolving metadata. Metadata may include the following, but is not limited to: Owner, Manufacturer, Bus, Motor, and Mission.

OBJECT Z, 42848 is a satellite in SSO that was launched on Fri, 14 Jul 2017 UTC via a SOYUZ-2-1A launch vehicle from the Tyuratam Missile And Space Complex (TTMTR). Unknown objects in Earth's orbit typically refer to objects detected orbiting the Earth but have not yet been identified or cataloged. These objects could be anything from previously untracked satellites, spent rocket stages, debris from satellite collisions, or even natural meteoroids temporarily captured by Earth's gravity.

Loading next visibility...
Identifier
42848, 2017-042Z
Orbit
SSO
Country
Flag of TBDTBD
Related business
None
Manufacturer
Unknown
Mission
Non-operational Commercial Meteo Radio Occ.
Bus & Motor
Unknown
Mass
Unknown
Launch date (UTC)
2017-07-14 (9 years ago)
Launch vehicle
SOYUZ-2-1A
Launch site
Tyuratam Missile And Space Complex (TTMTR)
Object type
Unknown
Shape & HBR
Box + 2 Pan, 0.3 m
Radar Cross Section
0.079 m², Medium (>0.1 m² and < 1m²)

Expand to show TLE details & history
Last TLE update: 13 hours ago

TLE from 13 hours ago
0 OBJECT Z
1 42848U 17042Z   26236.89688917  .00002605  00000-0  17357-3 0  9994
2 42848  97.4012  37.3962 0005594 166.7508 193.3868 15.07930998497590
Epoch: 2026-08-24T21:31Z
TLE epoch observation values (Epoch: 2026-08-24T21:31:31.224Z)
Latitude
-0.00006°
Longitude
101.3441°
Altitude
549.364 km
Speed
7.585 km/s
True Right ascension
02h 29m 35s
True Declination
0° 00' 00"
Sunlit
Object was in full shadow at epoch
Visualization orbit readout
Latitude
Unknown
Longitude
Unknown
Altitude
Unknown
Speed
Unknown
Apparent Right ascension
Unknown
Apparent Declination
Unknown
Sunlit
N/A
Visualization observer readout
Local Sidereal Time
01:56:23
Azimuth
Unknown
Elevation
Unknown
Doppler factor
Unknown
Orbital elements
Apogee altitude
543.375 km
Perigee altitude
535.635 km
Semi-major axis
6,917.642 km
Eccentricity
0.00056
Inclination
97.4012°
RAAN
37.3962°
Arg. of periapsis
166.7508°
True anomaly
193.37197°
Mean anomaly
193.3868°
Eccentric anomaly
193.37938°
Mean motion
3.7723 °/min
Orbital period
95.43 mins
BSTAR
0.00017357
Loading maneuver chart data...
Computing Atmospheric mass density...
Loading historical data...
Loading historical data...
Loading historical data...
Loading historical data...
Loading historical data...
Loading historical data...
Loading historical data...

Documentation

Showing up to 5 results
|